2017-008BJ

Last updated on Wed Mar 01 2017 00:15:03 GMT+0000 (Coordinated Universal Time)

1 42004U 17008BJ 17059.09081827 .00001692 00000-0 77181-4 0 9999 2 42004 97.5095 120.7030 0007420 225.5742 134.4884 15.22002341 1777
UTC large
Height (km)
Speed (km/s)
/
Latitude / Longitude
Inclination (degrees)
Orbital Period (minutes)
Azimuth
Elevation
Range (km)
Doppler Factor

Next 0 passes for location: London (51.5072 / 0.1276)

Sorry there are no passes over London.